Overview Statistics Trail Chart Weather Telemetry Raw packets
 

This is the latest recevied weather packets stored in our database for station/object KB1RMA-4. If no packets are shown the sender has not sent any weather packets the latest 10 day(s).

<< 10 11 12 13 14 15 16 >>
Time Temp. Humidity Pressure Rain* Wind** Luminosity Snow
1788562758 23.33° C 64% 1008.6 hPa 0 mm - 6 W/m² -
1788562457 23.33° C 66% 1008.4 hPa 0 mm - 8 W/m² -
1788562151 22.78° C 68% 1008.4 hPa 0 mm - 10 W/m² -
1788561847 22.78° C 73% 1008.6 hPa 0 mm - 13 W/m² -
1788561547 23.33° C 73% 1008.5 hPa 0 mm - 12 W/m² -
1788561246 23.33° C 72% 1008.6 hPa 0 mm - 16 W/m² -
1788560943 23.33° C 71% 1008.5 hPa 0 mm - 20 W/m² -
1788560643 23.33° C 71% 1008.4 hPa 0 mm - 26 W/m² -
1788560342 23.33° C 72% 1008.5 hPa 0 mm - 41 W/m² -
1788560037 23.33° C 73% 1008.3 hPa 0 mm - 42 W/m² -
1788559732 23.33° C 74% 1008.6 hPa 0 mm - 45 W/m² -
1788559431 23.33° C 74% 1008.3 hPa 0 mm - 48 W/m² -
1788559127 23.33° C 74% 1008.4 hPa 0 mm - 52 W/m² -
1788558822 23.33° C 74% 1008.5 hPa 0 mm - 47 W/m² -
1788558518 23.33° C 73% 1008.5 hPa 0 mm - 54 W/m² -
1788558214 23.33° C 73% 1008.6 hPa 0 mm - 55 W/m² -
1788557912 23.33° C 73% 1008.6 hPa 0 mm - 57 W/m² -
1788557607 22.78° C 74% 1008.5 hPa 0 mm - 59 W/m² -
1788557303 23.33° C 73% 1008.4 hPa 0 mm - 57 W/m² -
1788557003 22.78° C 74% 1008.4 hPa 0 mm - 58 W/m² -
1788556698 22.78° C 74% 1008.6 hPa 0 mm - 58 W/m² -
1788556393 23.33° C 74% 1008.5 hPa 0 mm - 157 W/m² -
1788556089 23.33° C 73% 1008.7 hPa 0 mm - 192 W/m² -
1788555788 23.33° C 73% 1008.7 hPa 0 mm - 88 W/m² -
1788555484 23.33° C 74% 1008.5 hPa 0 mm - 259 W/m² -

* Rain latest hour (hover to see other rain measurements)
** Current wind speed in m/s (hover to see current wind gust speed)